TimeEST,TemperatureF,Dew PointF,Humidity,Sea Level PressureIn,VisibilityMPH,Wind Direction,Wind SpeedMPH,Gust SpeedMPH,PrecipitationIn,Events,Conditions,WindDirDegrees,DateUTC
12:13 AM,51.8,50.0,94,30.02,5.0,NE,3.5,-,0.02,Rain,Light Rain,40,2012-12-09 05:13:00
12:51 AM,51.1,50.0,96,30.01,6.0,NE,5.8,-,0.05,Rain,Light Rain,50,2012-12-09 05:51:00
1:17 AM,51.8,50.0,94,30.01,5.0,NE,4.6,-,0.02,Rain,Light Rain,50,2012-12-09 06:17:00
1:51 AM,51.1,50.0,96,30.01,5.0,NE,4.6,-,0.02,Rain,Light Rain,50,2012-12-09 06:51:00
2:29 AM,51.8,50.0,94,30.01,2.5,NNE,3.5,-,0.04,Rain,Light Rain,20,2012-12-09 07:29:00
2:51 AM,51.1,50.0,96,30.00,4.0,NE,4.6,-,0.06,Rain,Light Rain,50,2012-12-09 07:51:00
3:43 AM,51.8,50.0,94,30.01,2.5,North,4.6,-,0.00,Rain,Light Rain,10,2012-12-09 08:43:00
3:51 AM,51.1,50.0,96,30.00,2.5,NE,5.8,-,0.01,Rain,Light Rain,50,2012-12-09 08:51:00
4:04 AM,51.8,50.0,94,30.01,4.0,NE,4.6,-,0.00,,Overcast,50,2012-12-09 09:04:00
4:16 AM,51.8,50.0,94,30.01,2.5,Variable,3.5,-,0.00,Rain,Light Rain,0,2012-12-09 09:16:00
4:29 AM,51.8,50.0,94,30.01,3.0,Calm,Calm,-,0.02,Rain,Light Rain,0,2012-12-09 09:29:00
4:51 AM,51.1,50.0,96,30.00,4.0,NE,4.6,-,0.03,Rain,Light Rain,40,2012-12-09 09:51:00
5:51 AM,51.8,50.0,94,30.02,4.0,North,6.9,-,N/A,,Overcast,350,2012-12-09 10:51:00
6:51 AM,50.0,48.9,96,30.02,4.0,NE,5.8,-,N/A,,Overcast,50,2012-12-09 11:51:00
7:47 AM,50.0,48.2,94,30.03,1.0,ENE,5.8,-,N/A,,Overcast,60,2012-12-09 12:47:00
7:51 AM,50.0,48.9,96,30.03,1.0,NE,4.6,-,N/A,,Overcast,50,2012-12-09 12:51:00
8:30 AM,50.0,48.2,94,30.02,0.2,ENE,5.8,-,N/A,Fog,Fog,70,2012-12-09 13:30:00
8:51 AM,50.0,48.9,96,30.02,0.2,ENE,5.8,-,N/A,Fog,Fog,70,2012-12-09 13:51:00
9:51 AM,51.1,51.1,100,30.01,0.2,East,4.6,-,N/A,Fog,Fog,90,2012-12-09 14:51:00
10:51 AM,52.0,51.1,97,30.00,0.2,East,3.5,-,0.00,Fog-Rain,Light Rain,100,2012-12-09 15:51:00
11:51 AM,53.1,52.0,96,29.98,0.1,Calm,Calm,-,0.04,Fog-Rain,Rain,0,2012-12-09 16:51:00
12:09 PM,51.8,51.8,100,29.97,0.1,Calm,Calm,-,0.02,Fog-Rain,Light Rain,0,2012-12-09 17:09:00
12:48 PM,51.8,51.8,100,29.95,2.0,Calm,Calm,-,0.14,Rain,Light Rain,0,2012-12-09 17:48:00
12:51 PM,52.0,51.1,97,29.95,2.5,Calm,Calm,-,0.14,Rain,Light Rain,0,2012-12-09 17:51:00
12:57 PM,53.6,51.8,94,29.95,0.5,Calm,Calm,-,0.01,Fog-Rain,Light Rain,0,2012-12-09 17:57:00
1:51 PM,54.0,54.0,100,29.92,0.5,Calm,Calm,-,0.02,Fog-Rain,Light Rain,0,2012-12-09 18:51:00
1:56 PM,53.6,53.6,100,29.91,1.0,SE,5.8,-,0.00,Rain,Light Rain,130,2012-12-09 18:56:00
2:14 PM,55.4,55.4,100,29.90,8.0,SSE,4.6,-,0.00,Rain,Light Rain,160,2012-12-09 19:14:00
2:51 PM,57.2,57.2,100,29.89,10.0,South,9.2,-,N/A,,Mostly Cloudy,170,2012-12-09 19:51:00
3:51 PM,59.0,57.0,93,29.90,7.0,South,10.4,-,0.01,Rain,Light Rain,190,2012-12-09 20:51:00
4:51 PM,59.0,57.0,93,29.88,10.0,South,9.2,-,0.01,Rain,Light Rain,170,2012-12-09 21:51:00
5:51 PM,59.0,57.0,93,29.88,10.0,South,5.8,-,0.00,,Overcast,190,2012-12-09 22:51:00
6:51 PM,59.0,55.9,90,29.88,10.0,South,8.1,-,N/A,,Overcast,180,2012-12-09 23:51:00
7:51 PM,59.0,55.9,90,29.85,10.0,South,6.9,-,0.01,Rain,Light Rain,170,2012-12-10 00:51:00
8:51 PM,60.1,55.9,86,29.82,10.0,South,8.1,-,0.00,Rain,Light Rain,180,2012-12-10 01:51:00
9:51 PM,60.1,55.9,86,29.81,10.0,SSW,9.2,-,0.00,Rain,Light Rain,210,2012-12-10 02:51:00
10:51 PM,61.0,55.0,81,29.78,10.0,South,11.5,-,0.01,,Overcast,180,2012-12-10 03:51:00
11:51 PM,61.0,54.0,78,29.76,10.0,South,10.4,16.1,N/A,,Scattered Clouds,180,2012-12-10 04:51:00